Farrell Flat Airport

Jump to: basic info | weather | frequencies | runways | comments

Related pages: nearby airports | nearby navaids | notams | map

Basic information (top)

Codes: YFFT
Location: lon -33.833302, lat 138.766998
Status: small_airport

Weather (top)

Current conditions for Adelaide International Airport 68nm (125km) S (rec'd 2015/02/27 05:30Z):

YPAD 270530Z 22004KT CAVOK 33/10 Q1006 NOSIG

Airport forecast for Adelaide International Airport 68nm (125km) S (rec'd 2015/02/26 00:33Z):

TAF TAF YPAD 262300Z 2700/2806 04005KT CAVOK 
     FM270200 22010KT CAVOK 
     FM270900 15010KT CAVOK 
     FM271400 04006KT CAVOK 
     FM272300 31012KT CAVOK 
     FM280200 25012KT CAVOK 
     FM280400 21015KT 9999 -SHRA NSC

Frequencies (top)

Verify before use: may be inaccurate or out of date.

CTAF: 122.4 MHz (CTAF)
MISC: 114.2 MHz (MISC)
MISC: 119.8 MHz (MISC)
MISC: 121.3 MHz (MISC)

Runways (top)

03/21: 1,443 ft (440 m) — grass — not lighted

14/32: 2,486 ft (758 m) — grass — not lighted

Latest comments (top)

No comments yet for Farrell Flat Airport

More... (top)

See also NOTAMs and nearby airports and navaids, or visit the Farrell Flat Airport page at the main OurAirports website..